FW93366 Weather Reports


time (UTC)temp
C
wind
direction
speed
KPH
gust
KPH
rain 1hr
cm
rain 24hr
cm
rain mn
cm
humidity
%
barometer
mb
20260507120047 7 0 0.0 0.0 0.00 0.00 0.00 82 1021.0
20260507114543 7 0 0.0 0.0 0.00 0.00 0.00 81 1020.9
20260507113041 7 0 0.0 0.0 0.00 0.00 0.00 79 1020.9
20260507111543 7 0 0.0 0.0 0.00 0.00 0.00 80 1020.8
20260507110047 7 0 0.0 0.0 0.00 0.00 0.00 80 1020.9
20260507104546 7 0 0.0 0.0 0.00 0.00 0.00 81 1021.0
20260507103044 7 0 0.0 0.0 0.00 0.00 0.00 81 1020.8
20260507101547 7 0 0.0 0.0 0.00 0.00 0.00 80 1021.0
20260507100043 8 0 0.0 4.8 0.00 0.00 0.00 72 1021.0
20260507094546 8 0 0.0 4.8 0.00 0.00 0.00 70 1021.1
20260507093048 8 9 3.2 8.0 0.00 0.00 0.00 69 1021.3
20260507091544 8 16 1.6 6.4 0.00 0.00 0.00 70 1021.4
20260507090040 10 0 0.0 0.0 0.00 0.00 0.00 69 1021.4
20260507084544 10 0 0.0 0.0 0.00 0.00 0.00 67 1021.4
20260507083039 10 0 0.0 3.2 0.00 0.00 0.00 69 1021.4
20260507081545 10 86 0.0 4.8 0.00 0.00 0.00 67 1021.3
20260507080045 10 0 0.0 0.0 0.00 0.00 0.00 68 1021.3
20260507074541 10 0 0.0 0.0 0.00 0.00 0.00 70 1021.4
20260507073044 10 0 0.0 0.0 0.00 0.00 0.00 71 1021.5
20260507071543 10 0 0.0 0.0 0.00 0.00 0.00 70 1021.5
20260507070046 11 0 0.0 0.0 0.00 0.00 0.00 68 1021.5
20260507064544 11 0 0.0 0.0 0.00 0.00 0.00 68 1021.4
20260507063048 11 0 0.0 0.0 0.00 0.00 0.00 66 1021.3
20260507061542 12 0 0.0 0.0 0.00 0.00 0.00 67 1021.2
20260507060050 12 0 0.0 0.0 0.00 0.00 0.00 64 1021.1
20260507054546 12 0 0.0 3.2 0.00 0.00 0.00 62 1021.0
20260507053052 14 0 0.0 6.4 0.00 0.00 0.00 57 1021.0
20260507051540 16 0 1.6 11.3 0.00 0.00 0.00 56 1021.0
20260507050039 17 281 0.0 11.3 0.00 0.00 0.00 53 1021.0
20260507044555 18 257 6.4 17.7 0.00 0.00 0.00 53 1020.7
20260507043044 17 0 1.6 6.4 0.00 0.00 0.00 51 1020.7
20260507041548 18 0 1.6 16.1 0.00 0.00 0.00 49 1020.5
20260507040042 18 296 3.2 20.9 0.00 0.00 0.00 51 1020.2
20260507034545 19 257 9.7 19.3 0.00 0.00 0.00 46 1020.0
20260507033044 19 265 6.4 17.7 0.00 0.00 0.00 37 1019.8
20260507031547 18 280 3.2 9.7 0.00 0.00 0.00 35 1019.7
20260507030053 19 0 0.0 11.3 0.00 0.00 0.00 36 1019.5
20260507024549 20 236 1.6 12.9 0.00 0.00 0.00 34 1019.3
20260507023040 21 236 4.8 9.7 0.00 0.00 0.00 36 1019.3
20260507021539 23 202 1.6 11.3 0.00 0.00 0.00 36 1019.2
20260507020048 23 248 3.2 12.9 0.00 0.00 0.00 29 1019.2
20260507014544 23 272 4.8 14.5 0.00 0.00 0.00 26 1019.2
20260507013049 23 222 9.7 16.1 0.00 0.00 0.00 23 1019.2
20260507011542 23 240 8.0 16.1 0.00 0.00 0.00 22 1019.1
20260507010042 24 289 8.0 19.3 0.00 0.00 0.00 22 1019.3
20260507004543 24 232 8.0 17.7 0.00 0.00 0.00 21 1019.2
20260507003038 25 225 8.0 16.1 0.00 0.00 0.00 20 1019.3
20260507001542 25 262 1.6 17.7 0.00 0.00 0.00 18 1019.3
20260507000051 25 282 1.6 14.5 0.00 0.00 0.00 18 1019.4
20260506234543 25 0 1.6 14.5 0.00 0.00 0.00 20 1019.4
20260506233040 24 344 3.2 16.1 0.00 0.00 0.00 19 1019.5
20260506231543 25 257 0.0 14.5 0.00 0.00 0.00 19 1019.6
20260506230047 24 0 3.2 12.9 0.00 0.00 0.00 21 1019.6
20260506224558 24 15 3.2 16.1 0.00 0.00 0.00 19 1019.7
20260506223045 24 347 4.8 11.3 0.00 0.00 0.00 19 1020.0
20260506221545 24 256 6.4 17.7 0.00 0.00 0.00 20 1020.0
20260506220045 23 50 8.0 17.7 0.00 0.00 0.00 21 1020.2
20260506214549 23 17 4.8 11.3 0.00 0.00 0.00 22 1020.3
20260506213046 23 24 6.4 14.5 0.00 0.00 0.00 23 1020.4
20260506211544 23 347 1.6 17.7 0.00 0.00 0.00 23 1020.6
20260506210043 23 0 4.8 17.7 0.00 0.00 0.00 21 1020.8
20260506204541 23 0 3.2 14.5 0.00 0.00 0.00 25 1020.9
20260506203051 22 239 3.2 16.1 0.00 0.00 0.00 27 1020.9
20260506201550 22 280 3.2 16.1 0.00 0.00 0.00 30 1021.0
20260506200045 22 360 4.8 14.5 0.00 0.00 0.00 28 1021.0
20260506194557 22 289 3.2 12.9 0.00 0.00 0.00 30 1021.2
20260506193043 21 281 6.4 16.1 0.00 0.00 0.00 33 1021.4
20260506191539 21 312 6.4 17.7 0.00 0.00 0.00 34 1021.5
20260506190045 20 267 4.8 12.9 0.00 0.00 0.00 38 1021.7
20260506184544 20 56 4.8 12.9 0.00 0.00 0.00 40 1021.8
20260506183039 19 17 3.2 11.3 0.00 0.00 0.00 47 1021.9
20260506181545 18 305 1.6 11.3 0.00 0.00 0.00 49 1021.9
20260506180050 18 0 1.6 8.0 0.00 0.00 0.00 49 1022.0
20260506174545 18 323 1.6 8.0 0.00 0.00 0.00 51 1021.9
20260506173045 17 313 0.0 6.4 0.00 0.00 0.00 54 1021.8
20260506171551 16 0 0.0 4.8 0.00 0.00 0.00 59 1021.6
20260506170040 15 0 3.2 6.4 0.00 0.00 0.00 63 1021.7
20260506164539 15 149 1.6 11.3 0.00 0.00 0.00 62 1021.7
20260506163049 14 0 0.0 4.8 0.00 0.00 0.00 63 1021.6
20260506161546 13 0 0.0 0.0 0.00 0.00 0.00 66 1021.6
20260506160043 12 0 0.0 0.0 0.00 0.00 0.00 67 1021.7
20260506154544 12 0 0.0 0.0 0.00 0.00 0.00 71 1021.6
20260506153047 11 0 0.0 0.0 0.00 0.00 0.00 75 1021.6
20260506151546 10 0 0.0 6.4 0.00 0.00 0.00 78 1021.6
20260506150039 9 0 0.0 0.0 0.00 0.00 0.00 80 1021.5
20260506144551 8 0 0.0 3.2 0.00 0.00 0.00 81 1021.5
20260506143039 7 0 1.6 6.4 0.00 0.00 0.00 82 1021.3
20260506141540 7 0 0.0 4.8 0.00 0.00 0.00 83 1021.1
20260506140057 6 0 0.0 0.0 0.00 0.00 0.00 86 1020.8
20260506134546 6 0 0.0 0.0 0.00 0.00 0.00 88 1020.7
20260506133046 5 0 0.0 0.0 0.00 0.00 0.00 88 1020.5
20260506131548 5 0 0.0 0.0 0.00 0.00 0.00 88 1020.4
20260506130046 5 0 0.0 0.0 0.00 0.00 0.00 89 1020.0
20260506124546 5 0 0.0 0.0 0.00 0.00 0.00 88 1019.7
20260506123046 5 0 0.0 0.0 0.00 0.00 0.00 88 1019.5
20260506121542 6 0 0.0 0.0 0.00 0.00 0.00 89 1019.3